Find Starlink 37394

NORAD ID: 100475 Int'l Des: 2026-196 Owner: SPXS Country: US Constellation: starlink operational

Aktuelle Ansicht

3D-Globus wird geladen...

About Starlink 37394

Starlink 37394 (NORAD 100475) is a starlink constellation satellite launched Aug 25, 2026 by SPXS of US. with a mass of 575.00 kg.

Nächste Überflüge

Passes for default location (London). Set your location on the main map for personalized predictions.

Höhenverlauf

Loading altitude history...

Zweizeiliger Elementsatz

1 A0475U 26196C 26251.63411541 .00146161 00000-0 76670-3 0 9999
2 A0475 53.1579 300.8355 0001153 61.5296 298.5843 15.79848087 3482
Epoch: 8. Sept. 2026 • Age: 4 hours

Aktueller Status

Höhe 335.1 km
Apogäum / Perigäum N/A
Geschwindigkeit 7.71 km/s
Subsatellitenpunkt -14.14°S, 143.33°W
Startdatum 25. Aug. 2026
Alter 14 days
Typ internet

Technische Details

Klassifizierung Payload
Masse 575.00 kg
Trockenmasse 530.00 kg
Gesamtmasse 575.00 kg
Länge 0.30 m
Durchmesser 4.10 m
Spannweite 29.00 m
Form Box + pan
Hersteller SPXS
Bus-Typ Starlink V2MO
Phasenstatus In Orbit
Besitzer/Staat SPXS/US

Most Searched